Regional Weather Roundup
Issued by NWS

Home | Current Version | Previous Version | Graphics & Text | Print | Product List | Glossary On
Versions: 1 2 3 4 5 6 7 8 9 10 11 12 13 14 15 16 17 18 19 20 21 22 23 24 25 26 27
000
ASUS45 KBOU 271907
RWRCO

WEATHER ROUNDUP FOR COLORADO
NATIONAL WEATHER SERVICE DENVER/BOULDER CO
100 PM MDT WED APR 27 2016

NOTE: "FAIR" INDICATES FEW OR NO CLOUDS BELOW 12000 FEET WITH NO
SIGNIFICANT WEATHER AND/OR OBSTRUCTIONS TO VISIBILITY.

COZ001>005-013-030-031-272000-
...NORTHWEST COLORADO...

CITY           SKY/WX    TMP DP  RH WIND       PRES   REMARKS
CRAIG          PTSUNNY   50  31  48 W13       29.85F
HAYDEN         PTSUNNY   41  30  65 W5        29.86S
MEEKER         PTSUNNY   50  32  50 N8        29.85F
MOUNT WERNER   NOT AVBL
STEAMBOAT SPGS CLOUDY    42  33  70 NW8       29.85F
WALDEN         FAIR      34  28  80 CALM      29.87F
$$

COZ006>008-011-272000-
...WEST CENTRAL VALLEYS...

CITY           SKY/WX    TMP DP  RH WIND       PRES   REMARKS
GRAND JUNCTION PTSUNNY   54  37  52 NW12      29.85F
MONTROSE       PTSUNNY   52  32  46 MISG      29.87F
EAGLE          PTSUNNY   50  25  37 W10G18    29.86F
RIFLE          LGT RAIN  51  34  52 NE9       29.85S
DELTA          NOT AVBL
NUCLA          NOT AVBL
$$

COZ017>023-064>068-272000-
...SOUTHWEST COLORADO...

CITY           SKY/WX    TMP DP  RH WIND       PRES   REMARKS
DURANGO        FAIR      56  26  31 SW16G22   29.86F
CORTEZ         PTSUNNY   56  30  37 SW8       29.87F
PAGOSA SPRINGS FAIR      51  20  29 S13G20    29.87F
TELLURIDE      PTSUNNY   42  25  50 W3        29.93F
WOLF CREEK PAS NOT AVBL
$$

COZ009-010-012-014-032>034-037-058>063-272000-
...CENTRAL COLORADO...

CITY           SKY/WX    TMP DP  RH WIND       PRES   REMARKS
ASPEN          PTSUNNY   43  27  53 NW14      29.87S
BUENA VISTA    PTSUNNY   49  12  22 W12G24    29.82S
COPPER MTN     NOT AVBL
BERTHOUD PASS  CLOUDY    18   9  68 NW36G48   29.86R WCI  -3
COTTONWOOD PAS PTSUNNY   43  14  31 SW13G21   29.87S
GUNNISON       CLOUDY    48  23  37 SW16      29.88F
KREMMLING      FAIR      50  23  34 W10       29.86S
LEADVILLE      CLOUDY    34  19  54 N10       29.88S WCI  26
MONARCH PASS     N/A     25  23  93 W28G35    30.02R WCI   8
SALIDA         CLOUDY    53  20  27 SW16G32   29.88S
SUNLIGHT       PTSUNNY   32  30  93 CALM      29.98S
WILKERSON PASS FAIR      37  14  38 W7G18     29.91S
$$

COZ069>075-272000-
...SAN LUIS VALLEY/SANGRE DE CRISTO MOUNTAINS...

CITY           SKY/WX    TMP DP  RH WIND       PRES   REMARKS
ALAMOSA        PTSUNNY   54  16  22 VRB6G16   29.82F
LA VETA PASS   FAIR      43  18  36 SW7G16    29.89S
SAGUACHE       PTSUNNY   50  19  29 NW12G23   29.84F
$$

COZ035-036-038>040-272000-
...NORTHERN COLORADO FRONT RANGE...

CITY           SKY/WX    TMP DP  RH WIND       PRES   REMARKS
DENVER INTL AP PTSUNNY   50  28  42 NE7       29.80F
DMNS CITY PARK   N/A     51  29  44 E17       29.79F
AURORA         PTSUNNY   47  29  47 E6        29.81F
FRONT RANGE AP PTSUNNY   48  28  46 MISG      29.81F
ERIE MUNI ARPT PTSUNNY   49  29  46 E6        29.81F
BOULDER MUN AP PTSUNNY   50  32  50 S8        29.80S
CENTENNIAL     FAIR      47  28  47 N6        29.80F
BROOMFIELD     PTSUNNY   46  30  53 CALM      29.81F
FORT COLLINS   FAIR      48  30  49 SW3       29.82S
LONGMONT       LGT RAIN  51  30  44 SE6       29.83S
$$

COZ041-046-047-076>085-087-088-272000-
...PIKES PEAK/PALMER DIVIDE AND SOUTHERN FOOTHILLS...

CITY           SKY/WX    TMP DP  RH WIND       PRES   REMARKS
COLO. SPRINGS  PTSUNNY   50  26  39 SE10      29.80S
A. F. ACADEMY  PTSUNNY   50  27  40 NW7       29.78F
SCHRIEVER AFB  NOT AVBL
ELLICOTT       NOT AVBL
FALCON         FAIR      49  26  41 N9G20     29.80F
FORT CARSON    CLOUDY    52  29  41 E10G23    29.78F
LIMON          FAIR      50  27  40 N22G33    29.79F
MONUMENT HILL  FAIR      41  30  65 NE8       29.82F
TRINIDAD       FAIR      59  28  30 E14       29.76F
$$

COZ042>045-048>051-090-091-272000-
...NORTHEAST COLORADO...

CITY           SKY/WX    TMP DP  RH WIND       PRES   REMARKS
GREELEY ARPT   CLOUDY    48  28  46 N23G30    29.80F
AKRON          FAIR      51  32  48 N32G39    29.76F
BURLINGTON     PTSUNNY   56  30  37 N21G32    29.75R
WRAY           NOT AVBL
STERLING       FAIR      50  30  46 N25G35    29.76F
HOLYOKE        NOT AVBL
FORT MORGAN    FAIR      51  26  36 N30G38    29.79S
$$

COZ086-089-092>099-272000-
...SOUTHEAST COLORADO...

CITY           SKY/WX    TMP DP  RH WIND       PRES   REMARKS
PUEBLO         FAIR      59  28  30 SE9G21    29.77S
LA JUNTA       FAIR      58  27  30 NE9G18    29.79F
LAMAR          FAIR      61  27  27 N20G28    29.76F
SPRINGFIELD      N/A     56  29  35 N14G24    29.80S
$$




USA.gov is the U.S. government's official web portal to all federal, state and local government web resources and services.